Location: Boiro
(42.6475°N, 8.8834°W)
Time: 19:01:29
(UTC+02:00)

LINGQIAO VIDEO B - Visible Passes

Search period start: 21 September 2023 00:00
Search period end: 01 October 2023 00:00
Orbit: 635 x 658 km, 97.7° (Epoch: 21 September)

Date Brightness Start Highest point End Pass type
(mag) Time Alt. Az. Time Alt. Az. Time Alt. Az.
21 Sep ? 21:45:25 10° SSE 21:49:54 89° WSW 21:54:28 10° NNW visible
22 Sep ? 22:11:10 10° S 22:15:30 48° W 22:19:54 10° NNW visible
23 Sep ? 21:00:34 10° SE 21:04:32 31° ENE 21:08:31 10° N visible
23 Sep ? 22:37:25 10° SSW 22:41:11 26° W 22:44:59 10° NW visible
24 Sep ? 21:25:32 10° SSE 21:29:56 57° ENE 21:34:24 10° N visible
24 Sep ? 23:04:31 10° WSW 23:06:58 14° W 23:09:26 10° WNW visible
25 Sep ? 21:50:56 10° S 21:55:27 78° WSW 22:00:01 10° NNW visible
26 Sep ? 22:16:48 10° SSW 22:21:03 41° W 22:25:21 10° NNW visible
27 Sep ? 21:05:53 10° SE 21:10:00 36° ENE 21:14:09 10° N visible
27 Sep ? 22:43:11 10° SW 22:46:45 23° W 22:50:20 10° NW visible
28 Sep ? 21:30:57 10° SSE 21:35:25 66° ENE 21:39:57 10° N visible
28 Sep ? 23:10:39 10° WSW 23:12:32 12° W 23:14:26 10° WNW visible
29 Sep ? 21:56:27 10° S 22:00:57 67° WSW 22:05:28 10° NNW visible
30 Sep ? 20:46:31 10° ESE 20:50:06 24° ENE 20:53:42 10° NNE visible
30 Sep ? 22:22:25 10° SSW 22:26:33 35° W 22:30:45 10° NNW visible
